Location: Oshawa
(43.9000°N, 78.8670°W)
Time: 04:22:55
(UTC-05:00)

SPOT 5 - Visible Passes

Search period start: 27 February 2017 00:00
Search period end: 09 March 2017 00:00
Orbit: 624 x 815 km, 98.4° (Epoch: 26 February)

Date Brightness Start Highest point End Pass type
(mag) Time Alt. Az. Time Alt. Az. Time Alt. Az.
27 Feb 4.9 20:24:57 17° NNE 20:24:57 17° NNE 20:26:28 10° N visible
27 Feb 5.8 22:04:11 13° NNW 22:04:11 13° NNW 22:04:46 10° NNW visible
28 Feb 5.0 21:13:26 21° N 21:13:26 21° N 21:15:04 10° N visible
01 Mar 4.8 20:22:42 19° NNE 20:22:42 19° NNE 20:24:33 10° N visible
01 Mar 5.6 22:01:56 15° NNW 22:01:56 15° NNW 22:02:55 10° NNW visible
02 Mar 5.1 19:31:58 10° NE 19:31:58 10° NE 19:32:04 10° NE visible
02 Mar 4.8 21:11:12 23° N 21:11:12 23° N 21:13:10 10° N visible
03 Mar 4.7 20:20:29 20° NNE 20:20:29 20° NNE 20:22:38 10° N visible
03 Mar 5.5 21:59:43 17° NW 21:59:43 17° NW 22:01:04 10° NNW visible
04 Mar 5.1 19:29:45 10° NE 19:29:45 10° NE 19:29:55 10° NE visible
04 Mar 4.7 21:08:59 26° N 21:08:59 26° N 21:11:18 10° N visible
05 Mar 4.6 20:18:16 21° NNE 20:18:16 21° NNE 20:20:42 10° N visible
05 Mar 5.3 21:57:29 20° NW 21:57:29 20° NW 21:59:13 10° NNW visible
06 Mar 5.1 19:27:32 10° NE 19:27:32 10° NE 19:27:36 10° NE visible
06 Mar 4.5 21:06:46 30° N 21:06:46 30° N 21:09:24 10° N visible
07 Mar 4.5 20:16:02 22° NE 20:16:02 22° NE 20:18:47 10° N visible
07 Mar 5.2 21:55:17 23° NW 21:55:17 23° NW 21:57:21 10° NNW visible
08 Mar 4.3 21:04:33 33° N 21:04:33 33° N 21:07:30 10° N visible
08 Mar 6.0 22:43:48 11° NW 22:43:48 11° NW 22:44:11 10° NW visible
